Location: Unspecified
(50.7693°N, 0.0000°E)
Time: 18:36:17
(UTC+00:00)

Transit 2A - Pass Details

Date: 26 June 2019
Orbit: 594 x 965 km, 66.7° (Epoch: 15 July)

Event Time Altitude Azimuth Distance (km) Brightness Sun altitude
Rises 21:36:22 0° 157° (SSE) 3,630 - -9.1°
Reaches altitude 10° 21:40:02 10° 137° (SE) 2,698 - -9.5°
Exits shadow 21:40:23 11° 134° (SE) 2,632 8.1 -9.5°
Maximum altitude 21:43:32 15° 103° (ESE) 2,317 8.1 -9.8°
Drops below altitude 10° 21:47:00 10° 69° (ENE) 2,676 8.7 -10.1°
Sets 21:50:36 0° 49° (NE) 3,584 9.6 -10.3°
